| time (UTC) | temp F | wind direction | speed MPH | gust MPH | rain 1hr in | rain 24hr in | rain mn in | humidity % | barometer mb |
| 20260504060204 | 59 | 265 | 1.0 | 3.0 | 0.00 | 0.00 | 0.00 | 30 | 1012.9 |
| 20260504050704 | 61 | 211 | 3.0 | 10.0 | 0.00 | 0.00 | 0.00 | 29 | 1013.0 |
| 20260504050203 | 61 | 238 | 3.0 | 9.0 | 0.00 | 0.00 | 0.00 | 29 | 1013.1 |
| 20260504045704 | 61 | 241 | 2.0 | 8.0 | 0.00 | 0.00 | 0.00 | 29 | 1013.1 |
| 20260504045204 | 61 | 295 | 1.0 | 8.0 | 0.00 | 0.00 | 0.00 | 29 | 1013.2 |
| 20260504044704 | 61 | 273 | 1.0 | 5.0 | 0.00 | 0.00 | 0.00 | 29 | 1013.2 |
| 20260504044204 | 61 | 228 | 1.0 | 6.0 | 0.00 | 0.00 | 0.00 | 29 | 1013.2 |
| 20260504043704 | 61 | 272 | 1.0 | 6.0 | 0.00 | 0.00 | 0.00 | 29 | 1013.2 |
| 20260504042704 | 62 | 238 | 0.0 | 3.0 | 0.00 | 0.00 | 0.00 | 29 | 1013.3 |
| 20260504042204 | 62 | 238 | 1.0 | 3.0 | 0.00 | 0.00 | 0.00 | 29 | 1013.3 |
| 20260504041204 | 62 | 235 | 1.0 | 6.0 | 0.00 | 0.00 | 0.00 | 29 | 1013.3 |
| 20260504040704 | 62 | 248 | 1.0 | 5.0 | 0.00 | 0.00 | 0.00 | 29 | 1013.4 |
| 20260504035704 | 62 | 274 | 2.0 | 7.0 | 0.00 | 0.00 | 0.00 | 29 | 1013.5 |
| 20260504034703 | 62 | 243 | 2.0 | 8.0 | 0.00 | 0.00 | 0.00 | 29 | 1013.6 |
| 20260504034204 | 61 | 255 | 2.0 | 8.0 | 0.00 | 0.00 | 0.00 | 29 | 1013.6 |
| 20260504033704 | 61 | 266 | 2.0 | 5.0 | 0.00 | 0.00 | 0.00 | 30 | 1013.6 |
| 20260504033203 | 61 | 197 | 1.0 | 5.0 | 0.00 | 0.00 | 0.00 | 30 | 1013.6 |
| 20260504032703 | 61 | 243 | 1.0 | 3.0 | 0.00 | 0.00 | 0.00 | 31 | 1013.6 |
| 20260504032203 | 61 | 161 | 0.0 | 1.0 | 0.00 | 0.00 | 0.00 | 31 | 1013.6 |
| 20260504031204 | 61 | 161 | 0.0 | 2.0 | 0.00 | 0.00 | 0.00 | 32 | 1013.6 |
| 20260504025704 | 61 | 153 | 0.0 | 3.0 | 0.00 | 0.00 | 0.00 | 32 | 1013.6 |
| 20260504024704 | 62 | 101 | 0.0 | 2.0 | 0.00 | 0.00 | 0.00 | 32 | 1013.5 |
| 20260504024204 | 62 | 101 | 0.0 | 2.0 | 0.00 | 0.00 | 0.00 | 31 | 1013.4 |
| 20260504023704 | 62 | 101 | 0.0 | 0.0 | 0.00 | 0.00 | 0.00 | 31 | 1013.5 |
| 20260504023204 | 62 | 101 | 0.0 | 2.0 | 0.00 | 0.00 | 0.00 | 31 | 1013.6 |
| 20260504022704 | 63 | 101 | 0.0 | 1.0 | 0.00 | 0.00 | 0.00 | 31 | 1013.6 |
| 20260504022204 | 63 | 101 | 0.0 | 1.0 | 0.00 | 0.00 | 0.00 | 30 | 1013.6 |
| 20260504021706 | 64 | 101 | 0.0 | 0.0 | 0.00 | 0.00 | 0.00 | 30 | 1013.6 |
| 20260504021205 | 64 | 101 | 0.0 | 1.0 | 0.00 | 0.00 | 0.00 | 30 | 1013.6 |
| 20260504020706 | 64 | 101 | 0.0 | 0.0 | 0.00 | 0.00 | 0.00 | 29 | 1013.4 |
| 20260504015706 | 65 | 101 | 0.0 | 1.0 | 0.00 | 0.00 | 0.00 | 27 | 1013.4 |
| 20260504015205 | 65 | 101 | 1.0 | 2.0 | 0.00 | 0.00 | 0.00 | 27 | 1013.4 |
| 20260504014705 | 65 | 101 | 0.0 | 0.0 | 0.00 | 0.00 | 0.00 | 27 | 1013.3 |
| 20260504013705 | 65 | 101 | 0.0 | 1.0 | 0.00 | 0.00 | 0.00 | 27 | 1013.3 |
| 20260504013206 | 65 | 101 | 1.0 | 3.0 | 0.00 | 0.00 | 0.00 | 26 | 1013.2 |
| 20260504012706 | 66 | 99 | 1.0 | 3.0 | 0.00 | 0.00 | 0.00 | 26 | 1013.3 |
| 20260504012206 | 66 | 99 | 2.0 | 3.0 | 0.00 | 0.00 | 0.00 | 26 | 1013.3 |
| 20260504011706 | 66 | 101 | 0.0 | 3.0 | 0.00 | 0.00 | 0.00 | 26 | 1013.3 |
| 20260504011206 | 66 | 65 | 1.0 | 5.0 | 0.00 | 0.00 | 0.00 | 26 | 1013.3 |
| 20260504010205 | 66 | 67 | 0.0 | 3.0 | 0.00 | 0.00 | 0.00 | 26 | 1013.3 |
| 20260504005705 | 67 | 67 | 0.0 | 3.0 | 0.00 | 0.00 | 0.00 | 25 | 1013.3 |
| 20260504005206 | 67 | 67 | 1.0 | 3.0 | 0.00 | 0.00 | 0.00 | 25 | 1013.4 |
| 20260504004705 | 67 | 67 | 1.0 | 3.0 | 0.00 | 0.00 | 0.00 | 25 | 1013.4 |
| 20260504004206 | 67 | 67 | 2.0 | 3.0 | 0.00 | 0.00 | 0.00 | 25 | 1013.4 |
| 20260504003705 | 67 | 66 | 2.0 | 6.0 | 0.00 | 0.00 | 0.00 | 25 | 1013.4 |
| 20260504003206 | 67 | 23 | 2.0 | 6.0 | 0.00 | 0.00 | 0.00 | 25 | 1013.5 |
| 20260504002705 | 67 | 21 | 2.0 | 8.0 | 0.00 | 0.00 | 0.00 | 25 | 1013.5 |
| 20260504002205 | 67 | 36 | 3.0 | 5.0 | 0.00 | 0.00 | 0.00 | 24 | 1013.5 |
| 20260504001705 | 67 | 57 | 2.0 | 5.0 | 0.00 | 0.00 | 0.00 | 24 | 1013.5 |
| 20260504001206 | 67 | 55 | 2.0 | 6.0 | 0.00 | 0.00 | 0.00 | 24 | 1013.5 |
| 20260504000205 | 67 | 47 | 2.0 | 3.0 | 0.00 | 0.00 | 0.00 | 24 | 1013.6 |
| 20260503235705 | 67 | 355 | 0.0 | 3.0 | 0.00 | 0.00 | 0.00 | 26 | 1013.6 |
| 20260503235206 | 67 | 347 | 1.0 | 5.0 | 0.00 | 0.00 | 0.00 | 25 | 1013.8 |
| 20260503234706 | 67 | 5 | 1.0 | 6.0 | 0.00 | 0.00 | 0.00 | 25 | 1013.7 |
| 20260503234205 | 67 | 5 | 2.0 | 9.0 | 0.00 | 0.00 | 0.00 | 24 | 1013.5 |
| 20260503233706 | 68 | 53 | 2.0 | 3.0 | 0.00 | 0.00 | 0.00 | 24 | 1013.3 |
| 20260503233205 | 68 | 10 | 2.0 | 9.0 | 0.00 | 0.00 | 0.00 | 24 | 1013.2 |
| 20260503232705 | 68 | 24 | 1.0 | 13.0 | 0.00 | 0.00 | 0.00 | 23 | 1013.2 |
| 20260503232205 | 69 | 7 | 7.0 | 14.0 | 0.00 | 0.00 | 0.00 | 22 | 1013.3 |
| 20260503231705 | 69 | 358 | 3.0 | 7.0 | 0.00 | 0.00 | 0.00 | 21 | 1013.2 |
| 20260503231206 | 69 | 196 | 0.0 | 2.0 | 0.00 | 0.00 | 0.00 | 22 | 1013.1 |
| 20260503230705 | 69 | 196 | 0.0 | 2.0 | 0.00 | 0.00 | 0.00 | 21 | 1013.1 |
| 20260503230205 | 69 | 196 | 1.0 | 6.0 | 0.00 | 0.00 | 0.00 | 21 | 1013.3 |
| 20260503225705 | 69 | 216 | 2.0 | 6.0 | 0.00 | 0.00 | 0.00 | 21 | 1013.4 |
| 20260503224706 | 69 | 347 | 1.0 | 3.0 | 0.00 | 0.00 | 0.00 | 21 | 1013.3 |
| 20260503224205 | 69 | 5 | 1.0 | 6.0 | 0.00 | 0.00 | 0.00 | 21 | 1013.3 |
| 20260503223705 | 69 | 270 | 1.0 | 3.0 | 0.00 | 0.00 | 0.00 | 20 | 1013.2 |
| 20260503223205 | 70 | 304 | 2.0 | 3.0 | 0.00 | 0.00 | 0.00 | 21 | 1013.2 |
| 20260503222705 | 70 | 243 | 0.0 | 6.0 | 0.00 | 0.00 | 0.00 | 20 | 1013.2 |
| 20260503222206 | 70 | 342 | 2.0 | 8.0 | 0.00 | 0.00 | 0.00 | 20 | 1013.4 |
| 20260503221706 | 71 | 338 | 4.0 | 12.0 | 0.00 | 0.00 | 0.00 | 18 | 1013.5 |
| 20260503221205 | 71 | 289 | 2.0 | 7.0 | 0.00 | 0.00 | 0.00 | 18 | 1013.5 |
| 20260503220205 | 71 | 333 | 4.0 | 12.0 | 0.00 | 0.00 | 0.00 | 18 | 1013.5 |
| 20260503215705 | 71 | 347 | 2.0 | 7.0 | 0.00 | 0.00 | 0.00 | 19 | 1013.6 |
| 20260503215205 | 71 | 33 | 1.0 | 5.0 | 0.00 | 0.00 | 0.00 | 18 | 1013.7 |
| 20260503214705 | 71 | 342 | 2.0 | 7.0 | 0.00 | 0.00 | 0.00 | 18 | 1013.8 |
| 20260503213705 | 72 | 0 | 2.0 | 8.0 | 0.00 | 0.00 | 0.00 | 16 | 1013.8 |
| 20260503212705 | 73 | 342 | 3.0 | 12.0 | 0.00 | 0.00 | 0.00 | 15 | 1014.0 |
| 20260503212205 | 74 | 349 | 2.0 | 8.0 | 0.00 | 0.00 | 0.00 | 16 | 1014.1 |
| 20260503210705 | 75 | 248 | 2.0 | 6.0 | 0.00 | 0.00 | 0.00 | 15 | 1014.1 |
| 20260503210205 | 75 | 113 | 0.0 | 1.0 | 0.00 | 0.00 | 0.00 | 15 | 1014.2 |
| 20260503205706 | 75 | 113 | 2.0 | 3.0 | 0.00 | 0.00 | 0.00 | 15 | 1014.2 |
| 20260503205206 | 75 | 187 | 1.0 | 3.0 | 0.00 | 0.00 | 0.00 | 14 | 1014.3 |
| 20260503204205 | 74 | 83 | 1.0 | 3.0 | 0.00 | 0.00 | 0.00 | 15 | 1014.4 |
| 20260503203705 | 74 | 83 | 1.0 | 3.0 | 0.00 | 0.00 | 0.00 | 15 | 1014.4 |
| 20260503203205 | 74 | 182 | 1.0 | 7.0 | 0.00 | 0.00 | 0.00 | 15 | 1014.5 |
| 20260503202705 | 74 | 193 | 2.0 | 7.0 | 0.00 | 0.00 | 0.00 | 14 | 1014.5 |
| 20260503201705 | 73 | 111 | 1.0 | 3.0 | 0.00 | 0.00 | 0.00 | 16 | 1014.7 |
| 20260503201205 | 73 | 110 | 2.0 | 3.0 | 0.00 | 0.00 | 0.00 | 16 | 1014.8 |
| 20260503200705 | 72 | 124 | 1.0 | 3.0 | 0.00 | 0.00 | 0.00 | 16 | 1014.8 |
| 20260503200205 | 72 | 290 | 0.0 | 2.0 | 0.00 | 0.00 | 0.00 | 15 | 1014.9 |
| 20260503195704 | 72 | 12 | 2.0 | 3.0 | 0.00 | 0.00 | 0.00 | 14 | 1015.0 |
| 20260503194705 | 72 | 5 | 3.0 | 12.0 | 0.00 | 0.00 | 0.00 | 15 | 1015.1 |
| 20260503194205 | 72 | 84 | 1.0 | 5.0 | 0.00 | 0.00 | 0.00 | 17 | 1015.1 |
| 20260503193704 | 72 | 222 | 2.0 | 3.0 | 0.00 | 0.00 | 0.00 | 15 | 1015.2 |
| 20260503193205 | 72 | 105 | 2.0 | 3.0 | 0.00 | 0.00 | 0.00 | 14 | 1015.2 |
| 20260503192705 | 72 | 116 | 0.0 | 3.0 | 0.00 | 0.00 | 0.00 | 18 | 1015.3 |
| 20260503191705 | 72 | 179 | 0.0 | 1.0 | 0.00 | 0.00 | 0.00 | 16 | 1015.4 |
| 20260503191205 | 72 | 179 | 1.0 | 8.0 | 0.00 | 0.00 | 0.00 | 16 | 1015.4 |
| 20260503190704 | 72 | 150 | 0.0 | 3.0 | 0.00 | 0.00 | 0.00 | 16 | 1015.5 |
| 20260503190205 | 72 | 55 | 2.0 | 7.0 | 0.00 | 0.00 | 0.00 | 14 | 1015.6 |
| 20260503185705 | 72 | 129 | 0.0 | 2.0 | 0.00 | 0.00 | 0.00 | 14 | 1015.6 |
| 20260503185206 | 72 | 129 | 1.0 | 3.0 | 0.00 | 0.00 | 0.00 | 15 | 1015.7 |
| 20260503184705 | 72 | 47 | 0.0 | 3.0 | 0.00 | 0.00 | 0.00 | 17 | 1015.7 |
| 20260503184205 | 72 | 47 | 1.0 | 3.0 | 0.00 | 0.00 | 0.00 | 15 | 1015.8 |
| 20260503183705 | 72 | 32 | 2.0 | 8.0 | 0.00 | 0.00 | 0.00 | 16 | 1016.0 |
| 20260503183205 | 72 | 180 | 1.0 | 3.0 | 0.00 | 0.00 | 0.00 | 18 | 1016.0 |
| 20260503182205 | 71 | 184 | 1.0 | 3.0 | 0.00 | 0.00 | 0.00 | 18 | 1016.1 |
| 20260503181704 | 71 | 184 | 1.0 | 6.0 | 0.00 | 0.00 | 0.00 | 17 | 1016.2 |
| 20260503181206 | 71 | 139 | 0.0 | 3.0 | 0.00 | 0.00 | 0.00 | 19 | 1016.2 |
| 20260503180705 | 71 | 225 | 3.0 | 3.0 | 0.00 | 0.00 | 0.00 | 17 | 1016.2 |
| 20260503180204 | 71 | 91 | 1.0 | 3.0 | 0.00 | 0.00 | 0.00 | 17 | 1016.4 |
| 20260503175705 | 71 | 91 | 3.0 | 8.0 | 0.00 | 0.00 | 0.00 | 17 | 1016.6 |
| 20260503174704 | 70 | 128 | 0.0 | 5.0 | 0.00 | 0.00 | 0.00 | 22 | 1016.8 |
| 20260503174205 | 70 | 155 | 1.0 | 3.0 | 0.00 | 0.00 | 0.00 | 22 | 1016.9 |
| 20260503172705 | 69 | 143 | 1.0 | 3.0 | 0.00 | 0.00 | 0.00 | 25 | 1017.2 |
| 20260503172204 | 69 | 57 | 1.0 | 2.0 | 0.00 | 0.00 | 0.00 | 22 | 1017.2 |
| 20260503171705 | 69 | 57 | 0.0 | 2.0 | 0.00 | 0.00 | 0.00 | 19 | 1017.3 |
| 20260503171206 | 68 | 57 | 0.0 | 2.0 | 0.00 | 0.00 | 0.00 | 18 | 1017.4 |
| 20260503170704 | 68 | 324 | 1.0 | 2.0 | 0.00 | 0.00 | 0.00 | 19 | 1017.4 |
| 20260503160204 | 64 | 181 | 1.0 | 6.0 | 0.00 | 0.00 | 0.00 | 26 | 1017.8 |
| 20260503150705 | 56 | 170 | 0.0 | 1.0 | 0.00 | 0.00 | 0.00 | 41 | 1018.0 |
| 20260503150204 | 56 | 170 | 0.0 | 0.0 | 0.00 | 0.00 | 0.00 | 41 | 1018.1 |
| 20260503140205 | 52 | 170 | 0.0 | 0.0 | 0.00 | 0.00 | 0.00 | 47 | 1018.2 |
| 20260503131205 | 49 | 169 | 0.0 | 0.0 | 0.00 | 0.00 | 0.00 | 47 | 1018.0 |
| 20260503130705 | 49 | 169 | 0.0 | 2.0 | 0.00 | 0.00 | 0.00 | 46 | 1018.0 |
| 20260503130204 | 49 | 169 | 0.0 | 2.0 | 0.00 | 0.00 | 0.00 | 47 | 1018.0 |
| 20260503120205 | 48 | 169 | 0.0 | 0.0 | 0.00 | 0.00 | 0.00 | 45 | 1017.6 |
| 20260503110705 | 51 | 169 | 0.0 | 1.0 | 0.00 | 0.00 | 0.00 | 40 | 1017.6 |
| 20260503100204 | 52 | 217 | 0.0 | 0.0 | 0.00 | 0.00 | 0.00 | 37 | 1017.6 |
| 20260503090204 | 53 | 246 | 1.0 | 3.0 | 0.00 | 0.00 | 0.00 | 35 | 1017.8 |
| 20260503081204 | 50 | 250 | 0.0 | 2.0 | 0.00 | 0.00 | 0.00 | 38 | 1017.7 |
| 20260503080704 | 49 | 250 | 0.0 | 1.0 | 0.00 | 0.00 | 0.00 | 38 | 1017.7 |
| 20260503080204 | 49 | 250 | 0.0 | 1.0 | 0.00 | 0.00 | 0.00 | 38 | 1017.7 |
| 20260503072204 | 49 | 5 | 0.0 | 2.0 | 0.00 | 0.00 | 0.00 | 33 | 1018.1 |
| 20260503071704 | 49 | 5 | 0.0 | 0.0 | 0.00 | 0.00 | 0.00 | 32 | 1018.2 |
| 20260503070704 | 49 | 5 | 0.0 | 0.0 | 0.00 | 0.00 | 0.00 | 32 | 1018.1 |
| 20260503070204 | 49 | 5 | 0.0 | 2.0 | 0.00 | 0.00 | 0.00 | 32 | 1018.2 |